TERRA

Last updated on Wed Jul 02 2025 00:02:14 GMT+0000 (Coordinated Universal Time)

1 25994U 99068A 25182.63609762 .00000311 00000+0 72995-4 0 9998 2 25994 97.9972 240.1077 0000995 230.6616 282.2854 14.60722483358422
UTC large
Height (km)
Speed (km/s)
/
Latitude / Longitude
Inclination (degrees)
Orbital Period (minutes)
Azimuth
Elevation
Range (km)
Doppler Factor

Next 0 passes for location: London (51.5072 / 0.1276)

Sorry there are no passes over London.